Weather History for Hartford, CT

Change the Weather History Date:

Sunday, August 10, 2014

  Actual Average Record
Temperature  
Mean Temperature 72 °F -  
Max Temperature 86 °F 83 °F 100 °F (1949)
Min Temperature 61 °F 63 °F 43 °F (1964)
Cooling Degree Days 8    
Growing Degree Days 22 (Base 50)    
Moisture  
Dew Point 56 °F    
Average Humidity 64    
Maximum Humidity 93    
Minimum Humidity 26    
Precipitation  
Precipitation 0.00 in - - ()
Sea Level Pressure  
Sea Level Pressure 30.11 in    
Wind  
Wind Speed 2 mph (NNE)    
Max Wind Speed 12 mph    
Max Gust Speed 17 mph    
Visibility 9 miles    
Events      
Averages and records for this station are not official NWS values.
T = Trace of Precipitation, MM = Missing Value Source: NWS Daily Summary

Daily Weather History Graph

Daily Weather History Graph

Search for Another Location

Airport:

Trip Planner

Search our weather history database for the weather conditions in past years. The results will help you decide how hot, cold, wet, or windy it might be!

Date:

Astronomy

Aug. 10, 2014 Rise Set
Actual Time 5:53 AM EDT 7:57 PM EDT
Civil Twilight 5:23 AM EDT 8:27 PM EDT
Nautical Twilight 4:46 AM EDT 9:04 PM EDT
Astronomical Twilight 4:05 AM EDT 9:45 PM EDT
Moon 7:40 PM EDT (8/10) 5:43 AM EDT (8/10)
Length of Visible Light 15h 04m
Length of Day
14h 03m
Full, 100% of the Moon is Illuminated
Aug 10
Full
Aug 10
Full
Aug 17
Last Quarter
Aug 25
New
Sep 2
First Quarter

Hourly Weather History & Observations

Time (EDT) Temp. Heat Index Dew Point Humidity Pressure Visibility Wind Dir Wind Speed Gust Speed Precip Events Conditions
12:53 AM 64.9 °F - 62.1 °F 90% 30.10 in 10.0 mi Calm Calm - N/A   Clear
1:53 AM 64.0 °F - 61.0 °F 90% 30.10 in 10.0 mi Calm Calm - N/A   Clear
2:53 AM 63.0 °F - 60.1 °F 90% 30.11 in 10.0 mi Calm Calm - N/A   Clear
3:44 AM 61.0 °F - 59.0 °F 93% 30.11 in 2.0 mi Calm Calm - N/A   Clear
3:53 AM 62.1 °F - 59.0 °F 90% 30.12 in 10.0 mi Calm Calm - N/A   Clear
4:07 AM 62.1 °F - 60.1 °F 93% 30.11 in 1.8 mi Calm Calm - N/A   Clear
4:11 AM 62.1 °F - 60.1 °F 93% 30.11 in 3.0 mi Calm Calm - N/A   Clear
5:53 AM 61.0 °F - 59.0 °F 93% 30.12 in 10.0 mi Calm Calm - N/A   Clear
6:53 AM 62.1 °F - 59.0 °F 90% 30.13 in 10.0 mi Calm Calm - N/A   Clear
7:53 AM 66.0 °F - 57.9 °F 75% 30.14 in 10.0 mi North 4.6 mph - N/A   Clear
8:53 AM 70.0 °F - 59.0 °F 68% 30.15 in 10.0 mi NNE 5.8 mph - N/A   Clear
10:53 AM 77.0 °F - 59.0 °F 54% 30.14 in 10.0 mi North 3.5 mph - N/A   Clear
11:53 AM 80.1 °F 80.4 °F 57.0 °F 45% 30.13 in 10.0 mi NNE 6.9 mph - N/A   Clear
12:53 PM 82.0 °F 81.4 °F 55.0 °F 39% 30.12 in 10.0 mi NNW 8.1 mph - N/A   Clear
1:53 PM 82.9 °F - 52.0 °F 34% 30.11 in 10.0 mi NNE 6.9 mph - N/A   Clear
2:53 PM 84.9 °F - 46.9 °F 27% 30.10 in 10.0 mi NNE 9.2 mph - N/A   Clear
3:53 PM 84.9 °F - 46.0 °F 26% 30.09 in 10.0 mi NNE 11.5 mph 17.3 mph N/A   Clear
4:53 PM 84.9 °F - 46.9 °F 27% 30.09 in 10.0 mi NNE 5.8 mph - N/A   Clear
5:53 PM 84.0 °F - 48.0 °F 28% 30.08 in 10.0 mi NNE 6.9 mph - N/A   Clear
6:53 PM 82.9 °F - 46.9 °F 28% 30.08 in 10.0 mi Calm Calm - N/A   Clear
8:53 PM 71.1 °F - 55.9 °F 59% 30.09 in 10.0 mi Calm Calm - N/A   Clear
9:53 PM 71.1 °F - 57.9 °F 63% 30.11 in 10.0 mi SSE 4.6 mph - N/A   Clear
10:53 PM 70.0 °F - 60.1 °F 71% 30.12 in 10.0 mi SSE 3.5 mph - N/A   Clear
11:53 PM 66.9 °F - 60.1 °F 79% 30.13 in 10.0 mi Calm Calm - N/A   Clear